weather.gov     
National Weather Service

Regional Weather Roundup
NWS Homepage
This page is being discontinued on March 12, 2014.
The same data is available at this site. Please update your bookmarks.
Thank you, and we apologize for the inconvenience.
Please send an email to SR-SRH.Webmaster@noaa.gov with any concerns.


Current Version
Previous Version:    01  02  03  04  05  06  07  08  09  10  11  12  13  14  15  16  17  18  19  20  21  22  23  24  25  26  
[Printable]
336
ASUS45 KBOU 301607
RWRCO

WEATHER ROUNDUP FOR COLORADO
NATIONAL WEATHER SERVICE DENVER/BOULDER CO
1000 AM MDT THU OCT 30 2014

NOTE: "FAIR" INDICATES FEW OR NO CLOUDS BELOW 12000 FEET WITH NO
SIGNIFICANT WEATHER AND/OR OBSTRUCTIONS TO VISIBILITY.

COZ001>005-013-030-031-301700-
...NORTHWEST COLORADO...

CITY           SKY/WX    TMP DP  RH WIND       PRES   REMARKS
CRAIG          SUNNY     40  29  64 VRB3      30.43R
HAYDEN         SUNNY     43  25  49 E13       30.43S
MEEKER         SUNNY     42  26  53 CALM      30.42S
MOUNT WERNER   NOT AVBL
STEAMBOAT SPGS SUNNY     39  26  59 CALM      30.44S
WALDEN         SUNNY     43  28  56 SE6       30.44S
$$

COZ006>008-011-301700-
...WEST CENTRAL VALLEYS...

CITY           SKY/WX    TMP DP  RH WIND       PRES   REMARKS
GRAND JUNCTION SUNNY     49  23  36 SE12      30.37S
MONTROSE       SUNNY     46  22  38 CALM      30.42S
EAGLE          SUNNY     37  21  52 CALM      30.49F
RIFLE          SUNNY     41  22  46 CALM      30.42F
DELTA          SUNNY     46  19  34 CALM      30.41F
NUCLA          SUNNY     45  19  36 CALM      30.42S
$$

COZ017>023-064>068-301700-
...SOUTHWEST COLORADO...

CITY           SKY/WX    TMP DP  RH WIND       PRES   REMARKS
DURANGO        SUNNY     43  25  49 CALM      30.39S
CORTEZ         SUNNY     49  21  33 CALM      30.37S
PAGOSA SPRINGS SUNNY     47  23  38 CALM      30.43S
TELLURIDE      SUNNY     46  22  38 CALM      30.50S
WOLF CREEK PAS SUNNY     43  14  31 CALM      30.60R
$$

COZ009-010-012-014-032>034-037-058>063-301700-
...CENTRAL COLORADO...

CITY           SKY/WX    TMP DP  RH WIND       PRES   REMARKS
ASPEN          SUNNY     42  20  41 S3        30.45F
BUENA VISTA    SUNNY     44  16  31 CALM      30.44S
COPPER MTN     SUNNY     34  16  47 W17       30.57S WCI  23
BERTHOUD PASS  FAIR      27  23  86 NW30G38   30.54R WCI  10
COTTONWOOD PAS SUNNY     46  14  27 SE5       30.49S
GUNNISON       SUNNY     30  12  47 CALM      30.51F
KREMMLING      SUNNY     34  23  64 CALM        N/A
LEADVILLE      SUNNY     42  15  33 N10       30.49S
MONARCH PASS   SUNNY     32  16  51 W15       30.67R WCI  22
SALIDA         SUNNY     42  18  37 CALM      30.52S
SUNLIGHT       SUNNY     41  21  45 CALM      30.57R
WILKERSON PASS NOT AVBL
$$

COZ069>075-301700-
...SAN LUIS VALLEY/SANGRE DE CRISTO MOUNTAINS...

CITY           SKY/WX    TMP DP  RH WIND       PRES   REMARKS
ALAMOSA        SUNNY     43  18  36 CALM      30.43S
LA VETA PASS   SUNNY     39  16  38 E3        30.52S
SAGUACHE       NOT AVBL
$$

COZ035-036-038>040-301700-
...NORTHERN COLORADO FRONT RANGE...

CITY           SKY/WX    TMP DP  RH WIND       PRES   REMARKS
DENVER INTL AP MOSUNNY   52  27  38 SW7       30.40R
DMNS CITY PARK   N/A     53  26  35 S2        30.39F
AURORA         MOSUNNY   50  27  40 CALM      30.41S
FRONT RANGE AP NOT AVBL
ERIE MUNI ARPT SUNNY     54  25  31 CALM      30.39S
BOULDER MUN AP SUNNY     54  27  35 CALM      30.38F
CENTENNIAL     MOSUNNY   50  26  39 E5        30.41R
BROOMFIELD     MOSUNNY   54  27  35 VRB3      30.40S
FORT COLLINS   SUNNY     52  28  40 S7        30.39F
LONGMONT       SUNNY     55  29  36 S3        30.40S
$$

COZ041-046-047-076>085-087-088-301700-
...PIKES PEAK/PALMER DIVIDE AND SOUTHERN FOOTHILLS...

CITY           SKY/WX    TMP DP  RH WIND       PRES   REMARKS
COLO. SPRINGS  SUNNY     53  23  31 VRB5      30.42R
A. F. ACADEMY  SUNNY     50  22  33 N9        30.41S
ELLICOTT       SUNNY     53  24  32 NE12      30.40R
FALCON         SUNNY     49  22  34 N9G17     30.43R
FORT CARSON    SUNNY     55  24  31 VRB2      30.41R
LIMON          SUNNY     54  25  32 N9        30.39R
MONUMENT HILL  SUNNY     45  23  42 CALM      30.42S
TRINIDAD       SUNNY     53  19  26 W6        30.41R
$$

COZ042>045-048>051-090-091-301700-
...NORTHEAST COLORADO...

CITY           SKY/WX    TMP DP  RH WIND       PRES   REMARKS
GREELEY ARPT   SUNNY     52  28  40 W3        30.39S
AKRON          SUNNY     50  27  40 W10       30.37R
BURLINGTON     SUNNY     56  26  31 N15       30.35R
WRAY           SUNNY     58  29  34 NW9       30.33R
STERLING       SUNNY     52  34  50 S3        30.35R
HOLYOKE        NOT AVBL
FORT MORGAN    SUNNY     51  26  37 W8        30.38R
$$

COZ086-089-092>099-301700-
...SOUTHEAST COLORADO...

CITY           SKY/WX    TMP DP  RH WIND       PRES   REMARKS
PUEBLO         SUNNY     53  25  33 W6        30.39R
LA JUNTA       SUNNY     53  26  35 MISG      30.37R
LAMAR          SUNNY     54  28  36 W7        30.34R
SPRINGFIELD      N/A     57  25  29 N16       30.34R
$$




U.S. Dept. of Commerce
NOAA National Weather Service
1325 East West Highway
Silver Spring, MD 20910
E-mail: w-nws.webmaster@noaa.gov
Page last modified: May 16, 2007
NATIONAL WEATHER SERVICE: for Safety, for Work, for Fun - FOR LIFE